W0JRT-6 Weather Reports


Display with metric or nautical units.
time (UTC)temp
F
wind
direction
speed
MPH
gust
MPH
rain 1hr
in
rain 24hr
in
rain mn
in
humidity
%
barometer
mb
20260906174001 94 105 0.0 3.0 0.00 0.00 0.00 50 1006.9
20260906171954 94 163 2.0 6.0 0.00 0.00 0.00 47 1007.1
20260906171004 94 189 0.0 1.0 0.00 0.00 0.00 48 1007.3
20260906163950 93 157 1.0 4.0 0.00 0.00 0.00 50 1008.0
20260906160954 92 87 2.0 4.0 0.00 0.00 0.00 51 1007.9
20260906160004 92 94 0.0 4.0 0.00 0.00 0.00 52 1008.0
20260906154953 91 165 1.0 3.0 0.00 0.00 0.00 52 1007.8
20260906153954 91 109 1.0 6.0 0.00 0.00 0.00 54 1007.9
20260906152950 91 146 1.0 4.0 0.00 0.00 0.00 55 1007.9
20260906150953 89 194 3.0 5.0 0.00 0.00 0.00 57 1008.1
20260906144951 88 192 2.0 4.0 0.00 0.00 0.00 59 1008.5
20260906135953 84 29 2.0 5.0 0.00 0.00 0.00 68 1009.3
20260906134952 83 40 2.0 4.0 0.00 0.00 0.00 70 1009.5
20260906133951 82 33 0.0 0.0 0.00 0.00 0.00 73 1009.7
20260906130954 76 33 0.0 0.0 0.00 0.00 0.00 92 1010.0
20260906125954 75 33 0.0 0.0 0.00 0.00 0.00 94 1010.0
20260906124951 73 33 0.0 0.0 0.00 0.00 0.00 95 1010.1
20260906122950 72 33 0.0 0.0 0.00 0.00 0.00 96 1009.9
20260906120956 71 33 0.0 0.0 0.00 0.00 0.00 96 1009.9
20260906112950 71 33 0.0 2.0 0.00 0.00 0.00 95 1009.6
20260906103957 72 163 0.0 0.0 0.00 0.00 0.00 95 1009.2
20260906102956 72 163 0.0 0.0 0.00 0.00 0.00 95 1009.1
20260906101953 72 163 0.0 0.0 0.00 0.00 0.00 95 1009.1
20260906100957 72 163 0.0 0.0 0.00 0.00 0.00 95 1009.1
20260906095955 72 163 0.0 0.0 0.00 0.00 0.00 95 1009.0
20260906094955 72 163 0.0 0.0 0.00 0.00 0.00 95 1009.0
20260906093957 72 163 0.0 0.0 0.00 0.00 0.00 95 1009.0
20260906092956 73 163 0.0 0.0 0.00 0.00 0.00 95 1009.0
20260906090956 73 163 0.0 0.0 0.00 0.00 0.00 95 1008.8
20260906085956 73 163 0.0 0.0 0.00 0.00 0.00 95 1008.8
20260906084003 73 163 0.0 0.0 0.00 0.00 0.00 95 1008.6
20260906083002 73 163 0.0 0.0 0.00 0.00 0.00 95 1008.6
20260906073002 74 163 0.0 0.0 0.00 0.00 0.00 94 1008.4
20260906062950 75 163 0.0 0.0 0.00 0.00 0.00 93 1008.6
20260906061951 75 163 0.0 0.0 0.00 0.00 0.00 93 1008.6
20260906061003 75 163 0.0 0.0 0.00 0.00 0.00 93 1008.7
20260906054951 76 163 0.0 0.0 0.00 0.00 0.00 92 1008.6
20260906053951 76 163 0.0 0.0 0.00 0.00 0.00 92 1008.7
20260906052004 76 163 0.0 0.0 0.00 0.00 0.00 91 1008.7
20260906050951 76 163 0.0 0.0 0.00 0.00 0.00 90 1008.6
20260906050005 77 163 0.0 0.0 0.00 0.00 0.00 90 1008.6
20260906044957 77 163 0.0 0.0 0.00 0.00 0.00 90 1008.5
20260906043953 77 163 0.0 0.0 0.00 0.00 0.00 89 1008.5
20260906042955 77 163 0.0 0.0 0.00 0.00 0.00 89 1008.4
20260906041953 77 163 0.0 0.0 0.00 0.00 0.00 89 1008.5
20260906040953 77 163 0.0 0.0 0.00 0.00 0.00 88 1008.4
20260906035951 77 163 0.0 0.0 0.00 0.00 0.00 87 1008.2
20260906033951 78 163 0.0 0.0 0.00 0.00 0.00 86 1008.1
20260906032952 78 163 0.0 0.0 0.00 0.00 0.00 86 1007.9
20260906030955 79 163 0.0 0.0 0.00 0.00 0.00 85 1007.7
20260906025951 79 163 0.0 0.0 0.00 0.00 0.00 84 1007.5
20260906024950 79 163 0.0 0.0 0.00 0.00 0.00 83 1007.3
20260906023953 79 163 0.0 0.0 0.00 0.00 0.00 82 1007.2
20260906021957 80 163 0.0 0.0 0.00 0.00 0.00 81 1006.7
20260906020957 81 163 0.0 0.0 0.00 0.00 0.00 79 1006.6
20260906015952 82 163 0.0 0.0 0.00 0.00 0.00 78 1006.4
20260906014957 82 163 0.0 0.0 0.00 0.00 0.00 74 1006.1
20260906013949 83 163 0.0 0.0 0.00 0.00 0.00 72 1006.0
20260906012956 83 163 0.0 0.0 0.00 0.00 0.00 70 1005.8
20260906010957 85 163 0.0 0.0 0.00 0.00 0.00 65 1005.4
20260906004950 87 163 0.0 0.0 0.00 0.00 0.00 64 1005.1
20260906003955 88 163 0.0 0.0 0.00 0.00 0.00 61 1004.9
20260906001950 90 163 0.0 0.0 0.00 0.00 0.00 57 1004.7
20260906000949 91 163 0.0 0.0 0.00 0.00 0.00 55 1004.4
20260905235949 91 163 0.0 0.0 0.00 0.00 0.00 53 1004.2
20260905233952 93 163 0.0 0.0 0.00 0.00 0.00 50 1003.9
20260905225954 97 163 0.0 0.0 0.00 0.00 0.00 38 1003.5
20260905225005 98 163 0.0 5.0 0.00 0.00 0.00 34 1003.2
20260905223958 98 88 0.0 5.0 0.00 0.00 0.00 33 1003.3
20260905220951 99 137 0.0 3.0 0.00 0.00 0.00 35 1003.5
20260905214953 98 66 1.0 3.0 0.00 0.00 0.00 35 1003.6
20260905213950 99 191 2.0 6.0 0.00 0.00 0.00 31 1003.8
20260905210950 99 7 2.0 4.0 0.00 0.00 0.00 31 1004.1
20260905203959 99 153 0.0 0.0 0.00 0.00 0.00 31 1004.4
20260905202952 98 153 0.0 0.0 0.00 0.00 0.00 34 1004.5
20260905200957 98 154 1.0 5.0 0.00 0.00 0.00 33 1004.7
20260905195956 98 180 3.0 8.0 0.00 0.00 0.00 34 1004.9
20260905194956 97 94 2.0 6.0 0.00 0.00 0.00 36 1004.9
20260905193950 98 49 1.0 6.0 0.00 0.00 0.00 35 1004.9
20260905193001 97 181 1.0 5.0 0.00 0.00 0.00 35 1004.8
20260905191959 98 201 2.0 8.0 0.00 0.00 0.00 33 1004.9
20260905190949 98 164 3.0 7.0 0.00 0.00 0.00 34 1004.9
20260905185949 98 165 2.0 9.0 0.00 0.00 0.00 34 1005.0
20260905184950 98 171 4.0 9.0 0.00 0.00 0.00 33 1005.1
20260905182953 98 153 3.0 7.0 0.00 0.00 0.00 35 1005.4
20260905180955 97 291 6.0 10.0 0.00 0.00 0.00 36 1005.5
20260905174949 97 151 3.0 8.0 0.00 0.00 0.00 36 1005.8